This is the latest recevied weather packets stored in our database for station/object IU1INZ-13. If no packets are shown the sender has not sent any weather packets the latest 1 day(s).
| Time | Temp. | Humidity | Pressure | Rain* | Wind** | Luminosity | Snow |
|---|---|---|---|---|---|---|---|
| 1778007645 | 13.33° C | 84% | 1012.6 hPa | 0 mm | 2.68 m/s, 60° | - | - |
| 1778006732 | 13.89° C | 83% | 1012.5 hPa | 0 mm | 0.89 m/s, 58° | - | - |
| 1778005843 | 13.89° C | 81% | 1012.5 hPa | 0 mm | 0.89 m/s, 69° | - | - |
| 1778004932 | 13.89° C | 80% | 1012.5 hPa | 0 mm | 0 m/s | - | - |
| 1778004032 | 14.44° C | 80% | 1012.5 hPa | 0 mm | 0 m/s | - | - |
| 1778003134 | 14.44° C | 79% | 1012.4 hPa | 0 mm | 0.45 m/s, 60° | - | - |
| 1778002238 | 14.44° C | 78% | 1012.6 hPa | 0 mm | 0.45 m/s, 40° | - | - |
| 1778001334 | 14.44° C | 77% | 1012.6 hPa | 0 mm | 0.45 m/s, 145° | - | - |
| 1778000435 | 14.44° C | 77% | 1012.5 hPa | 0 mm | 0.89 m/s, 57° | - | - |
| 1777999530 | 15° C | 77% | 1012.7 hPa | 0 mm | 0.45 m/s, 71° | - | - |
| 1777998633 | 15° C | 76% | 1012.8 hPa | 0 mm | 0.45 m/s, 55° | - | - |
| 1777997733 | 15° C | 75% | 1012.8 hPa | 0 mm | 0.89 m/s, 200° | - | - |
| 1777996831 | 15° C | 75% | 1012.6 hPa | 0 mm | 0.45 m/s, 59° | - | - |
| 1777995944 | 15° C | 76% | 1012.8 hPa | 0 mm | 0.89 m/s, 286° | - | - |
| 1777995031 | 15° C | 75% | 1012.8 hPa | 0 mm | 0 m/s | - | - |
| 1777994129 | 15° C | 76% | 1012.9 hPa | 0 mm | 0.89 m/s, 152° | - | - |
| 1777993231 | 15° C | 77% | 1013 hPa | 0 mm | 0.89 m/s, 172° | - | - |
| 1777992337 | 14.44° C | 79% | 1013 hPa | 0 mm | 0.45 m/s, 87° | - | - |
| 1777991435 | 14.44° C | 78% | 1013.2 hPa | 0 mm | 0.45 m/s, 63° | - | - |
| 1777990529 | 14.44° C | 79% | 1013.3 hPa | 0 mm | 0.45 m/s, 72° | - | - |
| 1777989635 | 13.89° C | 81% | 1013.4 hPa | 0 mm | 0.45 m/s, 73° | - | - |
| 1777988733 | 13.89° C | 80% | 1013.5 hPa | 0 mm | 0.89 m/s, 60° | - | - |
| 1777987839 | 14.44° C | 80% | 1013.6 hPa | 0 mm | 0 m/s | - | - |
| 1777986932 | 13.89° C | 82% | 1013.8 hPa | 0 mm | 0.45 m/s, 142° | - | - |
| 1777986030 | 13.33° C | 82% | 1013.9 hPa | 0 mm | 0.89 m/s, 61° | - | - |
* Rain latest hour (hover to see other rain measurements)
** Current wind speed in m/s (hover to see current wind gust speed)